Погода в Кизьве

Россия / Пермский край     58°28′55″N   54°32′31″E
темп.,
°C
ветер,
м/с
пор.,
м/с
влажн.,
%
обл.,
%
осадки,
мм/ч
давл.,
гПа
погр.,
м
11 мая, вт
вт1123:00+16с267099 0.1 1023134
02:00+14св2785100 0.3 1023185
05:00+13ссв2689100 0.3 1025208
08:00+15ссв238378 0.0 1026312
11:00+18ссз3368100 0.0 1027828
14:00+20ссз235691 0.0 10281099
17:00+20ссз335586 0.0 10281431
20:00+17с36666 0.0 1028350
12 мая, ср
ср1223:00+12ссв22822 0.0 102925
02:00+10ссв238372 0.0 103053
05:00+9св1178100 0.0 103111
08:00+13св12595 0.0 1031199
11:00+19всв12375 0.0 1031761
14:00+23вюв11334 0.0 10291136
17:00+23з01333 0.0 10291514
20:00+20юз114845 0.0 102811
13 мая, чт
чт1323:00+15зюз015659 0.0 102811
02:00+14зсз11625 0.0 102810
05:00+12зсз116713 0.0 102910
08:00+17сз005734 0.0 1029122
11:00+23ю11400 0.0 1029725
14:00+26ю12320 0.0 10271642
17:00+26ю22310 0.0 10261983
20:00+22юв224765 0.0 102526
14 мая, пт
пт1423:00+17ююз226477 0.0 102614
02:00+16юз2267100 0.0 102615
05:00+14ююз226493 0.0 102611
08:00+18юз26565 0.0 1025223
11:00+23юз354088 0.0 1024996
14:00+26юз4629100 0.0 10232072
17:00+25юз363387 0.0 10231823
20:00+22ююз245069 0.0 102181
15 мая, сб
сб1523:00+17ююз2763100 0.0 1021113
02:00+16юз2773100 0.0 1021131
05:00+15юз2582100 0.0 102196
08:00+19юз367188 0.0 1021228
11:00+24юз474460 0.0 10201029
14:00+27зюз59355 0.0 10192093
17:00+28зюз583243 0.0 10182367
20:00+24юз27484 0.0 1017172